Overview Statistics Trail Chart Weather Telemetry Raw packets
 

This is the latest recevied weather packets stored in our database for station/object N4ASP-13. If no packets are shown the sender has not sent any weather packets the latest 10 day(s).

<< 16 17 18 19 20 21 22 >>
Time Temp. Humidity Pressure Rain* Wind** Luminosity Snow
1788619581 30° C 74% 1016.4 hPa 0 mm - 737 W/m² -
1788619523 30° C 73% 1016.4 hPa 0 mm - 735 W/m² -
1788619460 30° C 70% 1016.3 hPa 0 mm - 733 W/m² -
1788619400 30° C 71% 1016.3 hPa 0 mm - 731 W/m² -
1788619337 30° C 71% 1016.3 hPa 0 mm - 729 W/m² -
1788619275 30° C 71% 1016.4 hPa 0 mm - 726 W/m² -
1788619216 30° C 72% 1016.3 hPa 0 mm - 719 W/m² -
1788619153 30° C 72% 1016.4 hPa 0 mm - 717 W/m² -
1788619084 30° C 72% 1016.4 hPa 0 mm - 715 W/m² -
1788619024 30° C 71% 1016.3 hPa 0 mm - 714 W/m² -
1788618994 30° C 70% 1016.3 hPa 0 mm - 710 W/m² -
1788618903 30° C 70% 1016.4 hPa 0 mm - 708 W/m² -
1788618843 30° C 70% 1016.5 hPa 0 mm - 705 W/m² -
1788618779 30° C 73% 1016.4 hPa 0 mm - 703 W/m² -
1788618717 30° C 72% 1016.5 hPa 0 mm - 701 W/m² -
1788618657 30° C 70% 1016.4 hPa 0 mm - 694 W/m² -
1788618598 30° C 71% 1016.5 hPa 0 mm - 693 W/m² -
1788618538 30° C 69% 1016.4 hPa 0 mm - 691 W/m² -
1788618477 30° C 71% 1016.5 hPa 0 mm - 689 W/m² -
1788618416 30° C 71% 1016.4 hPa 0 mm - 686 W/m² -
1788618353 30° C 71% 1016.4 hPa 0 mm - 686 W/m² -
1788618293 30° C 70% 1016.4 hPa 0 mm - 679 W/m² -
1788618231 30° C 71% 1016.3 hPa 0 mm - 675 W/m² -
1788618166 30° C 72% 1016.4 hPa 0 mm - 673 W/m² -
1788618106 30° C 70% 1016.3 hPa 0 mm - 671 W/m² -

* Rain latest hour (hover to see other rain measurements)
** Current wind speed in m/s (hover to see current wind gust speed)